Location: Bieg
(49.3499°N, 10.3835°E)
Time: 20:43:09
(UTC+00:00)

USA 234 - Pass Details

Date: 23 May 2024
Orbit: 1100 x 1107 km, 123.0° (Epoch: 16 June)

Event Time Altitude Azimuth Distance (km) Brightness Sun altitude
Exits shadow 00:56:34 16° 169° (S) 2,519 4.7 -16.5°
Maximum altitude 01:01:11 37° 228° (SW) 1,646 3.7 -16.2°
Drops below altitude 10° 01:07:10 10° 294° (WNW) 2,964 5.5 -15.7°
Sets 01:09:53 0° 303° (WNW) 3,924 6.2 -15.5°
